deb Ablestar 008

Debris
NORAD ID: 417 Int'l Des: 1961 OMI Owner: AFSSD Country: US
LEOCIRCULAR

deb Ablestar 008について

説明を読み込み中...

リアルタイム位置

3D地球を読み込み中...

次回通過

高度履歴

Altitude vs Time

uPlot chart will show altitude changes over time

軌道要素

1 00417U 61015ES 25340.41010387 .00001592 00000-0 75793-3 0 9994
2 00417 66.7458 346.5158 0075522 243.5626 115.7705 14.20448430310113
Epoch: Dec 6, 2025 • Age: 26 hours

現在のステータス

高度 793.9 km
速度 7.47 km/s
衛星直下点 -10.21°S, 89.79°W
タイプ debris

大規模コンステレーション

Loading constellations...